Погода в Петрокрепости

Погода в Петрокрепости : погода сейчас, прогноз погоды и архив. Всё, что Вы хотите узнать о погоде в Петрокрепости!

Хотите узнать прогноз погоды в Петрокрепости? Тогда Вам сюда: Погода в Петрокрепости

Поиск расширенной информации на нашем сайте:

Другие новости

Новости СМИ2

Главная страница сайта

Новости сайта

02.10.2013

Напоминаем, что на нашем новом сайте вы можете получить высокодетализированные прогнозы погоды по пунктам России, СНГ и мира (включающие важные для авиации метеовеличины, такие как направление и скорость ветра, видимость, явления погоды, количество и форма облачности, нижняя и верхняя граница облачности), а также ознакомиться с разнообразными материалами по авиационной метеорологии и подборкой полезных ссылок на эту тему.

Сайт Метеоцентр.Азия посвящён разработке технологий оптимизации авиаметеорологического обслуживания, включая проектирование и перспективное создание нескольких автоматизированных авиаметеорологических систем:
- система выпуска высокодетальных прогностических карт явлений погоды для нижнего воздушного пространства по России и ближнему зарубежью;
- система верификации прогнозов TAF (выпускаемых синоптиками официальных АМСГ РФ и ближнего зарубежья) и AUTOTAF (выпускаемых сайтом Метеоцентр.Азия) - выявление ошибок, онлайн-сопоставление с фактической погодой METAR, автоматическое внесение коррективов в прогнозы при резком отклонении фактической погоды от прогноза, подсчёт оправдываемости прогнозов по элементам и в целом;
- система обработки, анализа и отображения авиаметеорологической информации для применения провайдерами метеорологической информации.

Рекомендуем: автошкола в марьино найти описание в каталоге

Погода в Петрокрепости - сегодня

Время (UTC), дата Ветер
(°,м/с) 
Видим.   Явления Облачность Т
(°С)
Тd
(°С)
f(%) Тe
(°С)
Pmin
(гПа)
dP
(гПа)
Po
(мм)
O2
(г/м3)
Тmin Tmax R s Состояние
почвы
03 18.01.17 210 (ЮЗ) 10 км    10/10 240 м 
[St]
-4.4 -5.6 91 -7  1028.6  -2.1  770  316  -4.8         
06 18.01.17 220 (ЮЗ) 3{10}  10 км    10/10 540 м 
[Sc]
-3.5 -4.3 94 -6  1026.9  -1.7  769  314  -4.8      11  равномерный
сухой снег
100% 
09 18.01.17 230 (ЮЗ) 10 км  {снег}  10/10 360 м 
[St]
-2.3 -2.9 96 -4  1027.1  0.3  769  313           
12 18.01.17 230 (ЮЗ) 10 км  {снег}  10/10 300 м 
[St]
-1.3 -2 95 -3  1026.3  -0.9  768  311           
15 18.01.17 230 (ЮЗ) 10 км    10/10 240 м 
[St]
-0.6 -1.1 96 -2  1025.6  -0.7  768  310      0.2     
18 18.01.17 230 (ЮЗ) 10 км  слаб. снег  10/10 240 м 
[Frnb|Ns]
-0.4 -0.6 99 -2  1024.2  -1.4  767  309    -0.4  0.2     
21 18.01.17 230 (ЮЗ) 10 км  слаб. снег  10/10 180 м 
[Frnb|Ns]
-0.3 -0.6 98 -3  1022.1  -2.1  765  309           
00 19.01.17 230 (ЮЗ) 4{10}  10 км  {снег}  10/10 270 м 
[St]
-0.1 -0.5 97 -3  1019.2  -2.9  763  308           
03 19.01.17 230 (ЮЗ) 4{10}  4000 м  слаб. морось  10/10 300 м 
[St]
+0.5 +0.2 98 -2  1016.8  -2.3  761  306  -0.6    0.3     
06 19.01.17 260 (З) 4-10{11}  4000 м  слаб. морось  10/10 360 м 
[St]
+1.3 +0.6 95 -1  1015.6  -1.2  760  305  -0.4    0.3  10  равномерный
мокрый или
старый снег
100% 
09 19.01.17 270 (З) 4-10{11}  10 км  слаб. морось  10/10 300 м 
[St]
+1.5 +0.8 95 -1  1014.5  -1.1  759  304           
12 19.01.17 260 (З) 4{14}  20000 м  {морось}  10/10 360 м 
[St]
+0.8 -0.1 94 -2  1012.6  -1.9  758  305           
15 19.01.17 260 (З) 4{14}  20000 м    10/10 270 м 
[St]
+1.2 +0.4 94 -1  1010.5  -2.1  756  303      0.0     
18 19.01.17 250 (З) 4{10}  20000 м    10/10 540 м 
[Sc]
+2.2 +0.6 89 1008.1  -2.4  755  302    +2.2  0.0     
21 19.01.17 270 (З) 3{14}  20000 м    3/0 средняя 
[Ac trans]
+1.9 +0 87 1008.3  0.2  755  302           
00 20.01.17 300 (СЗ) 20000 м    4/0 средняя 
[Ac trans]
+1.2 -3.3 72 +1  1010.6  2.2  756  304           
03 20.01.17 300 (СЗ) 20000 м    ясно 
-1.4 -6.8 67 -2  1013.5  2.9  759  308  -1.4         
06 20.01.17 280 (З) 20000 м    ясно 
-4 -9.4 66 -4  1015.1  1.5  760  312  -4      равномерный
мокрый или
старый снег
100% 
09 20.01.17 290 (З) 20000 м    3/0 средняя 
[Ac trans]
-2.3 -9.1 60 -2  1016.3  1.2  761  310           
12 20.01.17 230 (ЮЗ) 20000 м    3/0 средняя 
[Ac trans]
-1.1 -7.4 62 -1  1014.8  -1.5  760  308           
15 20.01.17 220 (ЮЗ) 20000 м    10/0 средняя, верхняя 
[Ac trans|Ci]
-2.7 -5.7 80 -4  1012.9  -1.8  758  309           
18 20.01.17 240 (ЮЗ) 20000 м    9/0 средняя 
[Ac trans]
-2.3 -3.9 89 -3  1011.4  -1.5  757  308    -1       
21 20.01.17 280 (З) 20000 м    8/0 средняя 
[Ac trans]
-3.2 -4.6 90 -4  1011.2  -0.3  757  309           
00 21.01.17 280 (З) 20000 м    6/0 средняя 
[Ac trans]
-4.2 -4.9 95 -4  1011.8  0.7  757  310           
03 21.01.17 280 (З) 20000 м    3/0 средняя 
[Ac trans]
-5.6 -5.9 98 -5  1012.3  0.4  758  312  -5.6         
Время (UTC), дата Ветер
(°,м/с) 
Видим.   Явления Облачность Т
(°С)
Тd
(°С)
f(%) Тe
(°С)
Pmin
(гПа)
dP
(гПа)
Po
(мм)
O2
(г/м3)
Тmin Tmax R s Состояние
почвы

Для получения пояснительной информации подведите курсор к названию столбца.

ПОГОДА в Петрокрепости - архив

Всё, что Вы хотите узнать о погоде в Петрокрепости - удобно и подробно!

Выберите нужную дату (начиная с 1 января 2015* года) и нажмите кнопку "Найти".
Будут отображены архивные сводки погоды по пункту Петрокрепость, начиная с указанной даты.


Отображать данные в формате CSV (для использования в таблицах Excel)


Внимание! Наш архив погоды предназначен исключительно для личного некоммерческого использования в познавательных целях. Если Вам необходимы официальные справки о состоянии погоды (для производственных, юридических, коммерческих и т.п. целей), обращайтесь в органы Росгидромета.

*Примечание: данная дата относится к архиву по метеостанциям СССР (Россия, СНГ, Балтия).
Архив по метеостанциям Зарубежной Европы и Азии (кроме Китая) хранится 10 дней, по другим регионам земного шара (Китай, Африка, Америка, Австралия, Океания) - 1 день.

Петрокрепость - район местоположения метеостанции


Название, широта, долгота, высота метеостанции:
Петрокрепость 59.9°ш. 31°д. 17 м над ур. моря [Российская Федерация]

Дополнительная информация

В oтличие oт бoльшинства пoгoдных сайтoв мы публикуем пoдрoбную метеoинфoрмацию в детальнoм прoфессиoнальнoм фoрмате.

Характеристики температуры и влажнoсти вoздуха измеряются на высoте 2 м в тени вдали oт зданий и деревьев.
Скoрoсть ветра измеряется на высoте 10 м (на урoвне рoста челoвека скoрoсть ветра ниже в 1.5-2 раза). Если метеoстанция нахoдится в гoрoде или в лесу, тo скoрoсть ветра занижена на 2-4 м/с пo сравнению с oткрытым местoм. Скoрoсть ветра над акватoриями крупных рек и oзёр, а также на вершинах хoлмoв на 2-5 м/с выше, чем в oбычных услoвиях.
Атмoсфернoе давление в разных тoчках местнoсти мoжет значительнo oтличаться oт давления на метеoстанции, в зависимoсти oт услoвий рельефа (при пoдъёме на 10 м давление пoнижается примернo на 1 мм рт.ст.).